Location: G?julap?du
(16.5372°N, 81.0979°E)
Time: 14:37:57
(UTC+00:00)

Cosmos 1655 Rocket - Pass Details

Date: 14 April 2026
Orbit: 969 x 1006 km, 83.0° (Epoch: 11 May)

Event Time Altitude Azimuth Distance (km) Brightness Sun altitude
Rises 22:30:23 0° 359° (N) 3,658 7.2 -26.4°
Reaches altitude 10° 22:32:54 10° 1° (N) 2,708 6.5 -25.8°
Maximum altitude 22:39:05 74° 86° (E) 1,004 4.1 -24.4°
Drops below altitude 10° 22:45:15 10° 171° (S) 2,704 6.2 -23.0°
Sets 22:47:45 0° 173° (S) 3,652 6.9 -22.4°
